Torna al catalogo

CZ-6A DEB

AttivoPO
NORAD 61399·DEBRIS·🇨🇳 China

Lanciato Aug 6, 2024 da Taiyuan Satellite Launch Center

Loading…

Prossimi Passaggi (prossime 24 ore)

TLE

AggiornatoSource: Space-Track

Epoca: Sep 14, 2026, 17:53 UTC

1 61399U 24140XQ  26257.74540178  .00000196  00000-0  10367-3 0  9993
2 61399  88.9481 262.1692 0103464 286.5673  72.4167 14.07566663103455

Traccia CZ-6A DEB in tempo reale con AllMySat

Download on the App Store